Regional Weather Roundup
Issued by NWS

Home | Current Version | Previous Version | Text Only | Print | Product List | Glossary Off
Versions: 1 2 3 4 5 6 7 8 9 10 11 12 13 14 15 16 17 18 19 20 21 22 23 24 25 26 27 28 29 30 31 32 33 34 35 36 37 38 39 40 41 42 43 44 45 46 47 48 49 50

000
ASUS45 KCYS 062210
RWRWY

WYOMING REGIONAL WEATHER ROUNDUP
NATIONAL WEATHER SERVICE CHEYENNE WY
300 PM MST FRI MAR 06 2015

NOTE:  "FAIR" INDICATES FEW OR NO CLOUDS BELOW 12,000 FEET
WITH NO SIGNIFICANT WEATHER AND/OR OBSTRUCTIONS TO VISIBILITY.

WYZ001-062300-
YELLOWSTONE NATIONAL PARK

CITY           SKY/WX    TMP DP  RH WIND       PRES   REMARKS
LK YELLOWSTONE   N/A     40  12  32 W12G20    30.34S WCI  33
W YELLOWSTONE  NOT AVBL

$$
WYZ002>013-054>058-071-098>099-062300-
NORTHERN WYOMING

CITY           SKY/WX    TMP DP  RH WIND       PRES   REMARKS
JACKSON        SUNNY     36  18  48 CALM      30.36F
CODY           FAIR      54  18  24 NW13G21   30.20R
GREYBULL       FAIR      51  15  23 SW6       30.20F
WORLAND        FAIR      50  15  24 CALM      30.21F
SHERIDAN       FAIR      52  27  38 NW12      30.13F
BUFFALO        FAIR      50  19  29 W3        30.18S
GILLETTE       FAIR      52  22  30 NW17G26   30.14F
HULETT         FAIR      52  21  30 W15G23    30.12S
NEWCASTLE      FAIR      52  18  25 NW20G25   30.14F

$$
WYZ014>020-022>026-101>103-062300-
CENTRAL WYOMING

CITY           SKY/WX    TMP DP  RH WIND       PRES   REMARKS
BIG PINEY      FAIR      46  15  28 N20       30.33F
PINEDALE       FAIR      37  21  52 NW23      30.32S WCI  26
DUBOIS         FAIR      43  14  31 NW23G29   30.26F
LANDER         FAIR      43  22  43 SE14      30.22F
RIVERTON       FAIR      34  23  64 NE5       30.25F WCI  30
CASPER         FAIR      41  24  51 SW20      30.23F
DOUGLAS        FAIR      44  26  49 NW12      30.22S

$$
WYZ021-027>030-104>119-062300-
SOUTHERN WYOMING

CITY           SKY/WX    TMP DP  RH WIND       PRES   REMARKS
EVANSTON       FAIR      43  20  39 SW14      30.38F
KEMMERER       FAIR      43  18  36 W14G22    30.37F
FORT BRIDGER   FAIR      45  21  38 W21       30.38F
ROCK SPRINGS   FAIR      42  20  41 W22       30.32S
DIXON          FAIR      43  21  40 SW9G17    30.38F
RAWLINS        FAIR      38  21  50 W21G30    30.31F WCI  28
SARATOGA       FAIR      37  23  56 W14       30.34S WCI  29
LARAMIE        FAIR      41  18  39 W14       30.25F
CHEYENNE       FAIR      48  20  32 NW16      30.23S
TORRINGTON     FAIR      54  18  24 W20G28    30.19F
PINE BLUFFS    FAIR      52  14  22 NW15      30.23R

$$


USA.gov is the U.S. government's official web portal to all federal, state and local government web resources and services.